Find PRSC-EO2

NORAD ID: 67746 Int'l Des: NNA 2026-027 Owner: SUPA Country: PK operational
LEOCIRCULARRETROGRADESSO

实时位置

正在加载3D地球...

关于 PRSC-EO2

正在加载描述...

即将过境

Passes for default location (London). Set your location on the main map for personalized predictions.

高度历史

Loading altitude history...

两行轨道根数

1 67746U 26027A 26130.92013021 .00004099 00000-0 20083-3 0 9995
2 67746 97.5009 259.3679 0009461 353.7118 6.3995 15.18679320 13302
Epoch: May 10, 2026 • Age: 14 hours

当前状态

高度 530.0 km
速度 7.60 km/s
星下点 -62.28°S, 135.49°W
发射日期 Feb 12, 2026
运行时间 0.2 years
类型 other

技术详情

分类 Payload
质量 500.00 kg
干质量 500.00 kg
总质量 500.00 kg
长度 2.00 m
直径 1.50 m
跨度 8.00 m
形状 Box + 2 Pan
制造商 SUPA
平台类型 PRSC-EO
阶段状态 In Orbit
所有者/国家 SUPA/PK

Most Searched